Вернуться в каталог

STARLINK-35361

АктивенСвязьSSO
NORAD 65667·PAYLOAD·🇺🇸 United States

Запущен Sep 19, 2025 с Vandenberg Space Force Base

Loading…

Ближайшие Пролёты (ближайшие 24 часа)

TLE

СвежийSource: CelesTrak SupGP

Эпоха: Sep 14, 2026, 21:01 UTC

1 65667C 25211R   26257.87618056 -.00001858  00000+0 -57708-4 0  2575
2 65667  97.2839 298.1156 0001357  94.3994   8.5672 15.33422478    14

Отслеживайте STARLINK-35361 в реальном времени с AllMySat

Download on the App Store